Chester, CT

7:40 PM EST on February 19, 2018 (GMT -0500)
Chester

Weather History for KSNC - November, 2012

Change the Weather History Date:

Saturday, November 24, 2012

  Actual Average (KHVN) Record (KHVN)
Temperature  
Mean Temperature 40 °F -  
Max Temperature 48 °F 48 °F 66 °F (1979)
Min Temperature 32 °F 34 °F 17 °F (1989)
Degree Days  
Heating Degree Days 25    
Moisture  
Dew Point 25 °F    
Average Humidity 56    
Maximum Humidity 100    
Minimum Humidity 34    
Precipitation  
Precipitation 0.02 in - - ()
Sea Level Pressure  
Sea Level Pressure 29.66 in    
Wind  
Wind Speed 9 mph (NW)    
Max Wind Speed 18 mph    
Max Gust Speed 31 mph    
Visibility 10 miles    
Events Rain    
Averages and records for this station are not official NWS values.
T = Trace of Precipitation, MM = Missing Value Source: NWS Daily Summary

Daily Weather History Graph

Daily Weather History Graph

Search for Another Location

Airport or City:

Trip Planner

Search our weather history database for the weather conditions in past years. The results will help you decide how hot, cold, wet, or windy it might be!

Date:

Astronomy

Nov. 24, 2012 Rise Set
Actual Time 6:49 AM EST 4:23 PM EST
Civil Twilight 6:19 AM EST 4:54 PM EST
Nautical Twilight 5:45 AM EST 5:28 PM EST
Astronomical Twilight 5:12 AM EST 6:01 PM EST
Moon 2:08 PM EST (11/24) 3:01 AM EST (11/24)
Length of Visible Light 10h 35m
Length of Day
9h 34m
Waxing Gibbous, 87% of the Moon is Illuminated
Nov 24
Waxing Gibbous
Nov 28
Full
Dec 6
Last Quarter
Dec 13
New
Dec 20
First Quarter

Hourly Weather History & Observations

Time (EST) Temp. Windchill Dew Point Humidity Pressure Visibility Wind Dir Wind Speed Gust Speed Precip Events Conditions
12:15 AM 48.2 °F - 46.4 °F 93% 29.65 in 5.0 mi West 3.5 mph - N/A Rain Light Rain
12:35 AM 48.2 °F - 46.4 °F 93% 29.63 in 5.0 mi SSW 3.5 mph - 0.02 in Rain Light Rain
12:55 AM 46.4 °F 44.3 °F 46.4 °F 100% 29.63 in 8.0 mi West 4.6 mph - 0.02 in   Mostly Cloudy
1:15 AM 46.4 °F 44.3 °F 46.4 °F 100% 29.63 in 7.0 mi West 4.6 mph - N/A   Light Drizzle
1:35 AM 46.4 °F 44.3 °F 44.6 °F 93% 29.63 in 9.0 mi West 4.6 mph - N/A   Mostly Cloudy
1:55 AM 46.4 °F 43.5 °F 46.4 °F 100% 29.62 in 7.0 mi WSW 5.8 mph - N/A   Overcast
2:15 AM 46.4 °F 42.9 °F 46.4 °F 100% 29.61 in 7.0 mi West 6.9 mph - N/A   Mostly Cloudy
2:35 AM 46.4 °F 42.9 °F 44.6 °F 93% 29.61 in 7.0 mi West 6.9 mph - N/A   Mostly Cloudy
2:55 AM 46.4 °F 42.4 °F 44.6 °F 93% 29.60 in 10.0 mi West 8.1 mph - N/A   Mostly Cloudy
3:15 AM 46.4 °F 41.9 °F 41.0 °F 81% 29.60 in 10.0 mi WNW 9.2 mph 18.4 mph N/A   Mostly Cloudy
3:35 AM 46.4 °F 40.7 °F 39.2 °F 76% 29.61 in 10.0 mi NW 12.7 mph 21.9 mph N/A   Scattered Clouds
3:55 AM 44.6 °F 40.2 °F 39.2 °F 81% 29.62 in 10.0 mi NNW 8.1 mph - N/A   Mostly Cloudy
4:15 AM 44.6 °F 39.7 °F 35.6 °F 71% 29.62 in 10.0 mi NNW 9.2 mph - N/A   Scattered Clouds
4:35 AM 44.6 °F 40.2 °F 33.8 °F 66% 29.62 in 10.0 mi NNW 8.1 mph - N/A   Clear
4:55 AM 44.6 °F 39.7 °F 33.8 °F 66% 29.62 in 10.0 mi NW 9.2 mph 16.1 mph N/A   Partly Cloudy
5:35 AM 42.8 °F 38.6 °F 33.8 °F 70% 29.63 in 10.0 mi NW 6.9 mph - N/A   Mostly Cloudy
5:55 AM 42.8 °F 39.3 °F 32.0 °F 66% 29.64 in 10.0 mi NW 5.8 mph - N/A   Mostly Cloudy
6:35 AM 42.8 °F 36.2 °F 30.2 °F 61% 29.65 in 10.0 mi NNW 12.7 mph 19.6 mph N/A   Overcast
6:55 AM 42.8 °F 36.6 °F 26.6 °F 53% 29.66 in 10.0 mi NNW 11.5 mph 19.6 mph N/A   Overcast
7:35 AM 42.8 °F 37.0 °F 26.6 °F 53% 29.66 in 10.0 mi NNW 10.4 mph - N/A   Overcast
7:55 AM 42.8 °F 35.4 °F 24.8 °F 49% 29.67 in 10.0 mi NNW 15.0 mph 21.9 mph N/A   Overcast
8:15 AM 42.8 °F 35.4 °F 23.0 °F 46% 29.67 in 10.0 mi North 15.0 mph 21.9 mph N/A   Overcast
8:35 AM 42.8 °F 36.6 °F 21.2 °F 42% 29.67 in 10.0 mi NNW 11.5 mph 25.3 mph N/A   Scattered Clouds
8:55 AM 41.0 °F 33.5 °F 21.2 °F 45% 29.67 in 10.0 mi NW 13.8 mph 21.9 mph N/A   Clear
9:15 AM 42.8 °F 35.8 °F 21.2 °F 42% 29.67 in 10.0 mi NNW 13.8 mph 21.9 mph N/A   Clear
9:35 AM 42.8 °F 35.8 °F 21.2 °F 42% 29.66 in 10.0 mi NW 13.8 mph 26.5 mph N/A   Clear
9:55 AM 42.8 °F 35.4 °F 21.2 °F 42% 29.66 in 10.0 mi NNW 15.0 mph 26.5 mph N/A   Clear
10:15 AM 42.8 °F 37.0 °F 19.4 °F 39% 29.65 in 10.0 mi NW 10.4 mph 20.7 mph N/A   Clear
10:35 AM 42.8 °F 37.0 °F 21.2 °F 42% 29.65 in 9.0 mi NNW 10.4 mph 24.2 mph N/A   Clear
10:55 AM 42.8 °F 36.2 °F 19.4 °F 39% 29.64 in 10.0 mi WNW 12.7 mph 23.0 mph N/A   Partly Cloudy
11:15 AM 44.6 °F 38.4 °F 19.4 °F 37% 29.63 in 10.0 mi NNW 12.7 mph 26.5 mph N/A   Partly Cloudy
11:35 AM 42.8 °F 36.6 °F 17.6 °F 36% 29.62 in 10.0 mi WNW 11.5 mph 23.0 mph N/A   Partly Cloudy
11:55 AM 42.8 °F 34.8 °F 17.6 °F 36% 29.62 in 10.0 mi NW 17.3 mph 26.5 mph N/A   Clear
12:15 PM 42.8 °F 37.5 °F 17.6 °F 36% 29.62 in 10.0 mi WNW 9.2 mph 21.9 mph N/A   Partly Cloudy
12:35 PM 44.6 °F 38.1 °F 17.6 °F 34% 29.62 in 10.0 mi North 13.8 mph 20.7 mph N/A   Mostly Cloudy
12:55 PM 42.8 °F 36.6 °F 17.6 °F 36% 29.62 in 10.0 mi NW 11.5 mph 24.2 mph N/A   Scattered Clouds
1:15 PM 44.6 °F 37.8 °F 17.6 °F 34% 29.61 in 10.0 mi NW 15.0 mph 24.2 mph N/A   Scattered Clouds
1:35 PM 42.8 °F 35.4 °F 15.8 °F 34% 29.62 in 10.0 mi WNW 15.0 mph 27.6 mph N/A   Mostly Cloudy
1:55 PM 42.8 °F 35.8 °F 17.6 °F 36% 29.62 in 10.0 mi NW 13.8 mph 23.0 mph N/A   Mostly Cloudy
2:15 PM 42.8 °F 34.5 °F 17.6 °F 36% 29.62 in 10.0 mi NW 18.4 mph 26.5 mph N/A   Mostly Cloudy
2:35 PM 42.8 °F 35.1 °F 15.8 °F 34% 29.63 in 10.0 mi NW 16.1 mph 27.6 mph N/A   Mostly Cloudy
2:55 PM 41.0 °F 33.1 °F 15.8 °F 36% 29.63 in 10.0 mi NW 15.0 mph 27.6 mph N/A   Mostly Cloudy
3:15 PM 41.0 °F 33.1 °F 15.8 °F 36% 29.64 in 10.0 mi NW 15.0 mph 29.9 mph N/A   Scattered Clouds
3:35 PM 39.2 °F 33.0 °F 17.6 °F 42% 29.65 in 10.0 mi NW 9.2 mph - N/A   Clear
3:55 PM 39.2 °F 33.6 °F 17.6 °F 42% 29.65 in 10.0 mi NW 8.1 mph 16.1 mph N/A   Partly Cloudy
4:35 PM 39.2 °F 33.0 °F 17.6 °F 42% 29.67 in 10.0 mi WNW 9.2 mph 24.2 mph N/A   Mostly Cloudy
4:55 PM 39.2 °F 31.2 °F 17.6 °F 42% 29.68 in 10.0 mi NW 13.8 mph 25.3 mph N/A   Mostly Cloudy
5:15 PM 37.4 °F 30.3 °F 19.4 °F 48% 29.69 in 10.0 mi NW 10.4 mph 16.1 mph N/A   Partly Cloudy
5:35 PM 37.4 °F 28.2 °F 21.2 °F 52% 29.70 in 10.0 mi WNW 16.1 mph 28.8 mph N/A   Clear
5:55 PM 35.6 °F 27.5 °F 21.2 °F 56% 29.70 in 10.0 mi NW 11.5 mph 18.4 mph N/A   Clear
6:15 PM 35.6 °F 28.6 °F 21.2 °F 56% 29.70 in 10.0 mi NW 9.2 mph 17.3 mph N/A   Scattered Clouds
6:35 PM 35.6 °F 28.6 °F 21.2 °F 56% 29.70 in 10.0 mi NW 9.2 mph - N/A   Mostly Cloudy
6:55 PM 35.6 °F 31.7 °F 21.2 °F 56% 29.71 in 10.0 mi West 4.6 mph - N/A   Mostly Cloudy
7:15 PM 35.6 °F 27.5 °F 19.4 °F 52% 29.71 in 10.0 mi NW 11.5 mph 20.7 mph N/A   Mostly Cloudy
7:35 PM 35.6 °F 25.9 °F 17.6 °F 48% 29.71 in 10.0 mi WNW 16.1 mph 26.5 mph N/A   Mostly Cloudy
7:55 PM 35.6 °F 26.6 °F 17.6 °F 48% 29.72 in 10.0 mi NW 13.8 mph 31.1 mph N/A   Partly Cloudy
8:15 PM 35.6 °F 27.1 °F 17.6 °F 48% 29.72 in 10.0 mi NW 12.7 mph 23.0 mph N/A   Scattered Clouds
8:35 PM 33.8 °F 26.4 °F 17.6 °F 52% 29.73 in 10.0 mi NW 9.2 mph - N/A   Partly Cloudy
8:55 PM 33.8 °F 26.4 °F 19.4 °F 56% 29.73 in 10.0 mi NW 9.2 mph - N/A   Mostly Cloudy
9:15 PM 33.8 °F 27.0 °F 19.4 °F 56% 29.73 in 10.0 mi NW 8.1 mph - N/A   Overcast
9:35 PM 33.8 °F 27.7 °F 19.4 °F 56% 29.73 in 10.0 mi WNW 6.9 mph - N/A   Overcast
9:55 PM 33.8 °F 29.6 °F 19.4 °F 56% 29.74 in 10.0 mi West 4.6 mph - N/A   Mostly Cloudy
10:15 PM 33.8 °F 28.6 °F 19.4 °F 56% 29.74 in 10.0 mi NW 5.8 mph - N/A   Mostly Cloudy
10:35 PM 33.8 °F 30.8 °F 19.4 °F 56% 29.74 in 10.0 mi WNW 3.5 mph - N/A   Mostly Cloudy
10:55 PM 32.0 °F 25.6 °F 19.4 °F 60% 29.74 in 10.0 mi West 6.9 mph - N/A   Partly Cloudy
11:15 PM 32.0 °F 26.4 °F 19.4 °F 60% 29.75 in 10.0 mi WNW 5.8 mph - N/A   Clear
11:35 PM 32.0 °F 25.6 °F 19.4 °F 60% 29.75 in 10.0 mi WNW 6.9 mph - N/A   Clear
11:55 PM 32.0 °F 26.4 °F 19.4 °F 60% 29.76 in 10.0 mi WNW 5.8 mph - N/A   Clear